OAL463 KLAX-KLGA

Flight info

Callsign OAL463
Flight time 4h 29m
Altitude 32000
Route LAS J146 DVC HBU J146 ETG
Aircraft B77L/H-SDE1E2E3FGHIJ2J3J4J5M1RWXY/LB1D1

Departure

Time 2026-04-20 14:24
Airport Los Angeles International Airport (KLAX)

Arrival

Time 2026-04-20 18:54
Airport LaGuardia Airport (KLGA)
Time Latitude Longitude Altitude Speed Heading
2026-04-20 14:11 33.94541 -118.41004 97 ft 0 kts 263°
2026-04-20 14:18 33.94543 -118.40985 99 ft 3 kts 262°
2026-04-20 14:18 33.94546 -118.40960 97 ft 3 kts 262°
2026-04-20 14:19 33.94547 -118.40940 97 ft 3 kts 322°
2026-04-20 14:19 33.94530 -118.40930 99 ft 3 kts 348°
2026-04-20 14:19 33.94515 -118.40927 99 ft 0 kts 354°
2026-04-20 14:20 33.94527 -118.40928 100 ft 6 kts 355°
2026-04-20 14:20 33.94624 -118.40919 100 ft 18 kts 11°
2026-04-20 14:20 33.94749 -118.40888 99 ft 18 kts 11°
2026-04-20 14:21 33.94842 -118.40806 99 ft 18 kts 83°
2026-04-20 14:21 33.94858 -118.40653 99 ft 18 kts 83°
2026-04-20 14:21 33.94873 -118.40501 101 ft 18 kts 83°
2026-04-20 14:21 33.94889 -118.40350 101 ft 18 kts 83°
2026-04-20 14:22 33.94905 -118.40196 97 ft 18 kts 83°
2026-04-20 14:22 33.94920 -118.40043 97 ft 18 kts 83°
2026-04-20 14:22 33.94944 -118.39945 97 ft 2 kts 52°
2026-04-20 14:22 33.94993 -118.39915 100 ft 13 kts
2026-04-20 14:23 33.95037 -118.39968 97 ft 10 kts 274°
2026-04-20 14:23 33.95021 -118.40170 104 ft 47 kts 263°
2026-04-20 14:23 33.94944 -118.40908 103 ft 129 kts 262°
2026-04-20 14:23 33.94802 -118.42271 128 ft 194 kts 263°
2026-04-20 14:24 33.94618 -118.43903 672 ft 204 kts 262°
2026-04-20 14:24 33.94397 -118.45626 1347 ft 210 kts 262°
2026-04-20 14:24 33.94226 -118.47382 1869 ft 212 kts 263°
2026-04-20 14:24 33.94030 -118.49176 2354 ft 220 kts 262°
2026-04-20 14:25 33.93828 -118.51048 2845 ft 232 kts 263°
2026-04-20 14:25 33.93692 -118.53065 3066 ft 253 kts 276°
2026-04-20 14:25 33.94284 -118.55055 3426 ft 256 kts 303°
2026-04-20 14:25 33.95389 -118.56814 3715 ft 270 kts 315°
2026-04-20 14:26 33.96990 -118.58034 4326 ft 278 kts 343°
2026-04-20 14:26 33.98916 -118.58242 5058 ft 283 kts 10°
2026-04-20 14:26 34.00755 -118.57392 5775 ft 287 kts 36°
2026-04-20 14:26 34.02127 -118.55645 6449 ft 292 kts 62°
2026-04-20 14:27 34.02752 -118.53323 7151 ft 294 kts 88°
2026-04-20 14:27 34.02498 -118.50888 7869 ft 295 kts 113°
2026-04-20 14:27 34.01416 -118.48813 8572 ft 295 kts 138°
2026-04-20 14:27 33.99724 -118.47437 9255 ft 295 kts 158°
2026-04-20 14:28 33.97763 -118.46697 9949 ft 296 kts 168°
2026-04-20 14:28 33.95765 -118.46128 10666 ft 295 kts 160°
2026-04-20 14:28 33.94058 -118.44716 11120 ft 312 kts 131°
2026-04-20 14:28 33.93095 -118.42308 11468 ft 332 kts 102°
2026-04-20 14:29 33.93195 -118.39496 11958 ft 349 kts 77°
2026-04-20 14:29 33.94309 -118.36801 12241 ft 371 kts 51°
2026-04-20 14:29 33.96329 -118.34818 12738 ft 380 kts 30°
2026-04-20 14:29 33.98583 -118.33138 13124 ft 385 kts 40°
2026-04-20 14:30 34.00449 -118.30799 13694 ft 388 kts 53°
2026-04-20 14:30 34.02043 -118.28164 14456 ft 390 kts 57°
2026-04-20 14:30 34.03548 -118.25431 15116 ft 394 kts 58°
2026-04-20 14:30 34.05058 -118.22650 15740 ft 399 kts 58°
2026-04-20 14:31 34.06598 -118.19848 16392 ft 403 kts 57°
2026-04-20 14:31 34.08175 -118.17023 16901 ft 411 kts 57°
2026-04-20 14:31 34.09804 -118.14137 17369 ft 419 kts 56°
2026-04-20 14:31 34.11459 -118.11211 17811 ft 427 kts 56°
2026-04-20 14:32 34.13153 -118.08214 18204 ft 437 kts 56°
2026-04-20 14:32 34.14879 -118.05152 18600 ft 445 kts 56°
2026-04-20 14:32 34.16629 -118.02046 19103 ft 450 kts 56°
2026-04-20 14:32 34.18394 -117.98912 19676 ft 453 kts 56°
2026-04-20 14:33 34.20171 -117.95752 20251 ft 456 kts 56°
2026-04-20 14:33 34.21959 -117.92570 20772 ft 460 kts 56°
2026-04-20 14:33 34.23761 -117.89360 21294 ft 463 kts 56°
2026-04-20 14:33 34.25578 -117.86117 21736 ft 468 kts 55°
2026-04-20 14:34 34.27412 -117.82844 22200 ft 472 kts 55°
2026-04-20 14:34 34.29253 -117.79557 22694 ft 475 kts 55°
2026-04-20 14:34 34.31108 -117.76239 23156 ft 478 kts 55°
2026-04-20 14:34 34.32981 -117.72888 23610 ft 481 kts 55°
2026-04-20 14:35 34.34854 -117.69527 24035 ft 485 kts 55°
2026-04-20 14:35 34.36790 -117.66149 24448 ft 488 kts 53°
2026-04-20 14:35 34.38782 -117.62805 24886 ft 491 kts 53°
2026-04-20 14:35 34.40802 -117.59464 25331 ft 493 kts 52°
2026-04-20 14:36 34.42831 -117.56109 25739 ft 496 kts 52°
2026-04-20 14:36 34.44846 -117.52765 26116 ft 499 kts 53°
2026-04-20 14:36 34.46917 -117.49307 26554 ft 501 kts 53°
2026-04-20 14:36 34.48959 -117.45884 26983 ft 503 kts 53°
2026-04-20 14:37 34.51008 -117.42440 27382 ft 505 kts 53°
2026-04-20 14:37 34.53065 -117.38976 27753 ft 508 kts 53°
2026-04-20 14:37 34.55137 -117.35482 28108 ft 510 kts 53°
2026-04-20 14:37 34.57209 -117.31982 28470 ft 512 kts 53°
2026-04-20 14:38 34.59293 -117.28460 28813 ft 515 kts 53°
2026-04-20 14:38 34.61383 -117.24923 29154 ft 517 kts 53°
2026-04-20 14:38 34.63478 -117.21378 29513 ft 517 kts 52°
2026-04-20 14:38 34.64867 -117.19024 29787 ft 517 kts 52°
2026-04-20 14:39 34.67659 -117.14287 30459 ft 513 kts 52°
2026-04-20 14:39 34.69033 -117.11954 30781 ft 511 kts 52°
2026-04-20 14:39 34.71095 -117.08450 31229 ft 509 kts 52°
2026-04-20 14:39 34.73156 -117.04946 31621 ft 508 kts 52°
2026-04-20 14:40 34.75210 -117.01453 31982 ft 507 kts 52°
2026-04-20 14:40 34.77255 -116.97968 32379 ft 506 kts 52°
2026-04-20 14:40 34.79291 -116.94494 32784 ft 504 kts 52°
2026-04-20 14:40 34.81322 -116.91032 33086 ft 503 kts 52°
2026-04-20 14:41 34.85417 -116.84029 33049 ft 512 kts 52°
2026-04-20 14:41 34.89549 -116.76948 33025 ft 512 kts 52°
2026-04-20 14:42 34.93871 -116.70123 33030 ft 506 kts 45°
2026-04-20 14:42 34.98651 -116.63860 33029 ft 504 kts 44°
2026-04-20 14:43 35.03459 -116.57639 33027 ft 504 kts 44°
2026-04-20 14:43 35.08239 -116.51376 33024 ft 504 kts 44°
2026-04-20 14:44 35.12994 -116.45087 33028 ft 505 kts 44°
2026-04-20 14:44 35.17752 -116.38778 33017 ft 505 kts 44°
2026-04-20 14:45 35.22515 -116.32454 33022 ft 506 kts 44°
2026-04-20 14:45 35.27254 -116.26152 33025 ft 506 kts 44°
2026-04-20 14:46 35.32019 -116.19805 33022 ft 507 kts 44°
2026-04-20 14:46 35.36783 -116.13441 33026 ft 507 kts 44°
2026-04-20 14:47 35.41547 -116.07065 33019 ft 507 kts 44°
2026-04-20 14:48 35.48701 -115.97474 33021 ft 507 kts 44°
2026-04-20 14:48 35.53450 -115.91093 33018 ft 506 kts 44°
2026-04-20 14:49 35.58181 -115.84721 33014 ft 504 kts 45°
2026-04-20 14:49 35.62901 -115.78354 33015 ft 503 kts 45°
2026-04-20 14:50 35.67579 -115.71977 33020 ft 502 kts 45°
2026-04-20 14:50 35.72228 -115.65574 33019 ft 502 kts 45°
2026-04-20 14:51 35.76884 -115.59153 33015 ft 502 kts 45°
2026-04-20 14:51 35.81535 -115.52737 33023 ft 502 kts 45°
2026-04-20 14:52 35.86187 -115.46310 33016 ft 503 kts 45°
2026-04-20 14:52 35.90835 -115.39876 33024 ft 503 kts 45°
2026-04-20 14:53 35.95487 -115.33420 33022 ft 502 kts 45°
2026-04-20 14:53 36.00123 -115.26979 33016 ft 502 kts 45°
2026-04-20 14:54 36.04747 -115.20511 33006 ft 502 kts 47°
2026-04-20 14:54 36.08629 -115.13302 33010 ft 507 kts 59°
2026-04-20 14:55 36.11400 -115.05260 33003 ft 510 kts 67°
2026-04-20 14:55 36.13822 -114.97031 32978 ft 509 kts 67°
2026-04-20 14:56 36.16283 -114.88887 32971 ft 508 kts 66°
2026-04-20 14:56 36.18777 -114.80712 32969 ft 507 kts 66°
2026-04-20 14:57 36.21289 -114.72514 32976 ft 505 kts 66°
2026-04-20 14:57 36.23781 -114.64391 32971 ft 504 kts 66°
2026-04-20 14:58 36.26263 -114.56287 33000 ft 502 kts 66°
2026-04-20 14:58 36.28709 -114.48257 33016 ft 501 kts 66°
2026-04-20 14:59 36.31161 -114.40177 33021 ft 500 kts 66°
2026-04-20 14:59 36.33602 -114.32111 33029 ft 499 kts 66°
2026-04-20 15:00 36.36037 -114.24040 33030 ft 499 kts 66°
2026-04-20 15:00 36.38466 -114.15971 33038 ft 499 kts 66°
2026-04-20 15:01 36.40887 -114.07905 33049 ft 498 kts 66°
2026-04-20 15:01 36.43302 -113.99836 33055 ft 499 kts 66°
2026-04-20 15:02 36.45717 -113.91754 33056 ft 499 kts 66°
2026-04-20 15:02 36.48122 -113.83667 33080 ft 499 kts 66°
2026-04-20 15:03 36.50526 -113.75563 33086 ft 500 kts 66°
2026-04-20 15:03 36.52928 -113.67445 33083 ft 501 kts 66°
2026-04-20 15:04 36.55325 -113.59314 33095 ft 501 kts 67°
2026-04-20 15:04 36.57722 -113.51167 33102 ft 501 kts 67°
2026-04-20 15:05 36.60112 -113.43014 33130 ft 502 kts 67°
2026-04-20 15:05 36.62500 -113.34850 33138 ft 503 kts 68°
2026-04-20 15:06 36.64877 -113.26654 33148 ft 504 kts 68°
2026-04-20 15:06 36.67248 -113.18427 33145 ft 505 kts 68°
2026-04-20 15:07 36.69619 -113.10184 33152 ft 506 kts 68°
2026-04-20 15:07 36.71987 -113.01929 33173 ft 506 kts 69°
2026-04-20 15:08 36.74354 -112.93655 33185 ft 506 kts 69°
2026-04-20 15:08 36.76711 -112.85387 33190 ft 506 kts 69°
2026-04-20 15:09 36.79060 -112.77123 33190 ft 506 kts 69°
2026-04-20 15:09 36.81407 -112.68834 33192 ft 506 kts 70°
2026-04-20 15:10 36.83749 -112.60544 33197 ft 507 kts 70°
2026-04-20 15:10 36.86088 -112.52238 33202 ft 507 kts 70°
2026-04-20 15:11 36.88407 -112.43980 33205 ft 507 kts 70°
2026-04-20 15:11 36.90757 -112.35611 33216 ft 508 kts 70°
2026-04-20 15:12 36.93079 -112.27337 33226 ft 508 kts 70°
2026-04-20 15:12 36.95416 -112.18987 33208 ft 509 kts 70°
2026-04-20 15:13 36.97743 -112.10634 33208 ft 509 kts 70°
2026-04-20 15:13 37.00073 -112.02253 33199 ft 509 kts 71°
2026-04-20 15:14 37.02389 -111.93896 33197 ft 509 kts 71°
2026-04-20 15:14 37.04702 -111.85524 33196 ft 509 kts 71°
2026-04-20 15:15 37.07006 -111.77159 33192 ft 508 kts 71°
2026-04-20 15:15 37.09302 -111.68786 33187 ft 508 kts 72°
2026-04-20 15:16 37.11595 -111.60406 33185 ft 508 kts 71°
2026-04-20 15:16 37.13883 -111.52025 33189 ft 508 kts 70°
2026-04-20 15:17 37.16139 -111.43713 33166 ft 497 kts 69°
2026-04-20 15:17 37.18342 -111.35580 33178 ft 492 kts 69°
2026-04-20 15:18 37.20543 -111.27444 33177 ft 493 kts 70°
2026-04-20 15:18 37.22743 -111.19277 33178 ft 494 kts 70°
2026-04-20 15:19 37.24940 -111.11087 33190 ft 496 kts 70°
2026-04-20 15:19 37.27139 -111.02864 33173 ft 498 kts 70°
2026-04-20 15:20 37.29339 -110.94610 33175 ft 499 kts 70°
2026-04-20 15:20 37.31524 -110.86385 33176 ft 500 kts 70°
2026-04-20 15:21 37.33720 -110.78099 33179 ft 501 kts 71°
2026-04-20 15:21 37.35916 -110.69787 33171 ft 501 kts 71°
2026-04-20 15:22 37.38104 -110.61469 33167 ft 502 kts 71°
2026-04-20 15:22 37.39937 -110.54487 33170 ft 501 kts 71°
2026-04-20 15:23 37.42116 -110.46153 33159 ft 502 kts 71°
2026-04-20 15:23 37.44290 -110.37824 33171 ft 501 kts 71°
2026-04-20 15:24 37.46463 -110.29469 33186 ft 501 kts 72°
2026-04-20 15:24 37.48608 -110.21184 33177 ft 502 kts 72°
2026-04-20 15:25 37.50780 -110.12767 33184 ft 502 kts 72°
2026-04-20 15:25 37.52923 -110.04444 33196 ft 503 kts 72°
2026-04-20 15:26 37.55080 -109.96037 33214 ft 504 kts 72°
2026-04-20 15:26 37.57227 -109.87636 33219 ft 504 kts 72°
2026-04-20 15:27 37.59373 -109.79211 33229 ft 505 kts 72°
2026-04-20 15:27 37.61514 -109.70786 33265 ft 505 kts 72°
2026-04-20 15:28 37.63648 -109.62346 33253 ft 505 kts 73°
2026-04-20 15:28 37.65775 -109.53915 33247 ft 505 kts 73°
2026-04-20 15:29 37.67902 -109.45458 33242 ft 505 kts 73°
2026-04-20 15:29 37.70013 -109.37031 33261 ft 504 kts 73°
2026-04-20 15:30 37.72124 -109.28574 33275 ft 503 kts 73°
2026-04-20 15:30 37.74219 -109.20151 33273 ft 502 kts 73°
2026-04-20 15:31 37.76304 -109.11740 33285 ft 501 kts 73°
2026-04-20 15:31 37.78376 -109.03357 33287 ft 501 kts 73°
2026-04-20 15:32 37.80452 -108.94937 33284 ft 501 kts 73°
2026-04-20 15:32 37.83018 -108.86749 33294 ft 501 kts 66°
2026-04-20 15:33 37.85860 -108.78786 33297 ft 501 kts 66°
2026-04-20 15:33 37.88717 -108.70737 33296 ft 501 kts 66°
2026-04-20 15:34 37.91547 -108.62642 33301 ft 501 kts 67°
2026-04-20 15:34 37.94355 -108.54540 33320 ft 502 kts 67°
2026-04-20 15:35 37.97157 -108.46437 33334 ft 502 kts 67°
2026-04-20 15:35 37.99964 -108.38302 33325 ft 504 kts 67°
2026-04-20 15:36 38.02768 -108.30157 33336 ft 504 kts 67°
2026-04-20 15:36 38.05572 -108.21987 33345 ft 505 kts 67°
2026-04-20 15:37 38.08369 -108.13816 33358 ft 505 kts 67°
2026-04-20 15:37 38.11167 -108.05620 33362 ft 506 kts 67°
2026-04-20 15:38 38.13957 -107.97418 33356 ft 506 kts 67°
2026-04-20 15:38 38.16743 -107.89209 33355 ft 506 kts 67°
2026-04-20 15:39 38.19527 -107.80991 33357 ft 506 kts 67°
2026-04-20 15:39 38.22298 -107.72776 33353 ft 505 kts 67°
2026-04-20 15:40 38.25064 -107.64559 33340 ft 505 kts 67°
2026-04-20 15:40 38.27824 -107.56332 33332 ft 505 kts 67°
2026-04-20 15:41 38.30575 -107.48107 33337 ft 505 kts 67°
2026-04-20 15:41 38.33322 -107.39878 33348 ft 505 kts 67°
2026-04-20 15:42 38.36049 -107.31681 33360 ft 505 kts 67°
2026-04-20 15:42 38.38784 -107.23437 33368 ft 505 kts 67°
2026-04-20 15:43 38.41513 -107.15186 33379 ft 505 kts 67°
2026-04-20 15:43 38.44240 -107.06920 33382 ft 506 kts 68°
2026-04-20 15:44 38.46435 -106.98401 33392 ft 506 kts 76°
2026-04-20 15:44 38.48125 -106.89670 33394 ft 507 kts 77°
2026-04-20 15:45 38.49805 -106.80939 33400 ft 507 kts 76°
2026-04-20 15:45 38.51517 -106.72193 33416 ft 507 kts 76°
2026-04-20 15:46 38.53237 -106.63463 33432 ft 507 kts 76°
2026-04-20 15:46 38.54954 -106.54722 33461 ft 507 kts 76°
2026-04-20 15:47 38.56662 -106.45985 33495 ft 506 kts 76°
2026-04-20 15:47 38.58358 -106.37256 33531 ft 506 kts 76°
2026-04-20 15:48 38.60049 -106.28515 33537 ft 506 kts 76°
2026-04-20 15:48 38.61736 -106.19765 33443 ft 508 kts 76°
2026-04-20 15:49 38.63404 -106.11067 33382 ft 508 kts 76°
2026-04-20 15:49 38.65082 -106.02289 33338 ft 507 kts 76°
2026-04-20 15:50 38.66746 -105.93536 33323 ft 506 kts 76°
2026-04-20 15:50 38.68400 -105.84798 33323 ft 504 kts 76°
2026-04-20 15:51 38.70039 -105.76107 33331 ft 503 kts 76°
2026-04-20 15:51 38.71678 -105.67379 33339 ft 503 kts 77°
2026-04-20 15:52 38.73306 -105.58656 33352 ft 504 kts 77°
2026-04-20 15:52 38.74931 -105.49924 33361 ft 505 kts 77°
2026-04-20 15:53 38.77366 -105.36768 33349 ft 507 kts 77°
2026-04-20 15:53 38.78982 -105.27975 33339 ft 508 kts 77°
2026-04-20 15:54 38.80603 -105.19130 33321 ft 509 kts 77°
2026-04-20 15:54 38.82216 -105.10284 33308 ft 510 kts 77°
2026-04-20 15:55 38.83822 -105.01433 33245 ft 510 kts 77°
2026-04-20 15:55 38.85426 -104.92554 33237 ft 508 kts 77°
2026-04-20 15:56 38.87014 -104.83721 33232 ft 506 kts 77°
2026-04-20 15:56 38.88589 -104.74926 33225 ft 505 kts 77°
2026-04-20 15:57 38.90153 -104.66157 33230 ft 505 kts 77°
2026-04-20 15:57 38.91712 -104.57340 33240 ft 504 kts 77°
2026-04-20 15:58 38.93252 -104.48610 33263 ft 504 kts 77°
2026-04-20 15:58 38.94794 -104.39835 33250 ft 504 kts 77°
2026-04-20 15:59 38.96330 -104.31046 33261 ft 505 kts 78°
2026-04-20 15:59 38.97863 -104.22240 33248 ft 505 kts 78°
2026-04-20 16:00 38.99390 -104.13422 33251 ft 505 kts 78°
2026-04-20 16:00 39.00911 -104.04591 33237 ft 506 kts 78°
2026-04-20 16:01 39.02424 -103.95771 33229 ft 506 kts 78°
2026-04-20 16:01 39.03936 -103.86905 33214 ft 506 kts 78°
2026-04-20 16:02 39.05441 -103.78053 33199 ft 506 kts 78°
2026-04-20 16:02 39.06936 -103.69206 33197 ft 506 kts 78°
2026-04-20 16:03 39.08424 -103.60360 33186 ft 505 kts 78°
2026-04-20 16:03 39.09902 -103.51527 33180 ft 505 kts 78°
2026-04-20 16:04 39.11374 -103.42689 33177 ft 504 kts 78°
2026-04-20 16:04 39.12838 -103.33859 33180 ft 504 kts 78°
2026-04-20 16:05 39.14294 -103.25028 33176 ft 505 kts 78°
2026-04-20 16:05 39.15747 -103.16183 33160 ft 505 kts 78°
2026-04-20 16:06 39.16950 -103.08818 33150 ft 505 kts 78°
2026-04-20 16:06 39.18388 -102.99965 33165 ft 505 kts 78°
2026-04-20 16:07 39.19820 -102.91109 33141 ft 505 kts 78°
2026-04-20 16:07 39.21250 -102.82233 33150 ft 505 kts 78°
2026-04-20 16:08 39.22670 -102.73361 33139 ft 505 kts 78°
2026-04-20 16:08 39.24083 -102.64476 33135 ft 506 kts 78°
2026-04-20 16:09 39.25491 -102.55591 33127 ft 506 kts 78°
2026-04-20 16:09 39.26895 -102.46694 33131 ft 506 kts 78°
2026-04-20 16:10 39.28290 -102.37794 33127 ft 506 kts 78°
2026-04-20 16:10 39.29680 -102.28889 33131 ft 506 kts 78°
2026-04-20 16:11 39.31064 -102.19973 33130 ft 507 kts 78°
2026-04-20 16:11 39.32440 -102.11046 33123 ft 507 kts 78°
2026-04-20 16:12 39.33813 -102.02100 33122 ft 508 kts 78°
2026-04-20 16:12 39.35179 -101.93154 33124 ft 507 kts 77°
2026-04-20 16:13 39.36537 -101.84211 33117 ft 507 kts 77°
2026-04-20 16:13 39.37886 -101.75285 33111 ft 507 kts 77°
2026-04-20 16:14 39.39648 -101.66528 33094 ft 505 kts 68°
2026-04-20 16:14 39.42420 -101.58221 33115 ft 503 kts 64°
2026-04-20 16:15 39.45276 -101.49943 33112 ft 503 kts 64°
2026-04-20 16:15 39.48091 -101.41657 33121 ft 503 kts 64°
2026-04-20 16:16 39.50883 -101.33346 33121 ft 503 kts 64°
2026-04-20 16:16 39.53656 -101.25035 33127 ft 503 kts 64°
2026-04-20 16:17 39.56430 -101.16706 33132 ft 503 kts 64°
2026-04-20 16:17 39.59191 -101.08394 33133 ft 502 kts 64°
2026-04-20 16:18 39.61952 -101.00059 33132 ft 502 kts 64°
2026-04-20 16:18 39.64702 -100.91737 33142 ft 502 kts 64°
2026-04-20 16:19 39.67447 -100.83406 33138 ft 502 kts 64°
2026-04-20 16:19 39.70178 -100.75080 33132 ft 502 kts 64°
2026-04-20 16:20 39.72916 -100.66719 33120 ft 502 kts 64°
2026-04-20 16:20 39.75638 -100.58378 33113 ft 502 kts 64°
2026-04-20 16:21 39.78342 -100.50074 33095 ft 501 kts 64°
2026-04-20 16:21 39.81054 -100.41717 33102 ft 501 kts 64°
2026-04-20 16:22 39.83758 -100.33358 33098 ft 500 kts 64°
2026-04-20 16:22 39.86453 -100.24998 33112 ft 500 kts 64°
2026-04-20 16:23 39.89136 -100.16657 33111 ft 500 kts 64°
2026-04-20 16:23 39.91815 -100.08307 33110 ft 500 kts 64°
2026-04-20 16:24 39.94490 -99.99935 33111 ft 500 kts 64°
2026-04-20 16:24 39.97154 -99.91571 33120 ft 500 kts 64°
2026-04-20 16:25 39.99813 -99.83202 33121 ft 500 kts 64°
2026-04-20 16:25 40.02472 -99.74812 33121 ft 500 kts 64°
2026-04-20 16:26 40.05118 -99.66430 33120 ft 500 kts 64°
2026-04-20 16:26 40.07765 -99.58018 33120 ft 500 kts 64°
2026-04-20 16:27 40.10401 -99.49617 33124 ft 500 kts 64°
2026-04-20 16:27 40.13018 -99.41253 33115 ft 501 kts 64°
2026-04-20 16:28 40.15649 -99.32826 33120 ft 501 kts 64°
2026-04-20 16:28 40.18272 -99.24385 33121 ft 501 kts 64°
2026-04-20 16:29 40.20887 -99.15943 33116 ft 501 kts 64°
2026-04-20 16:29 40.23504 -99.07479 33123 ft 501 kts 63°
2026-04-20 16:30 40.26114 -98.99009 33120 ft 501 kts 63°
2026-04-20 16:30 40.28715 -98.90536 33121 ft 501 kts 63°
2026-04-20 16:31 40.31307 -98.82063 33127 ft 500 kts 63°
2026-04-20 16:31 40.33889 -98.73607 33129 ft 500 kts 63°
2026-04-20 16:32 40.36467 -98.65131 33128 ft 500 kts 63°
2026-04-20 16:32 40.39017 -98.56724 33122 ft 499 kts 63°
2026-04-20 16:33 40.41593 -98.48197 33116 ft 499 kts 63°
2026-04-20 16:33 40.44128 -98.39783 33123 ft 499 kts 63°
2026-04-20 16:34 40.46671 -98.31315 33118 ft 499 kts 63°
2026-04-20 16:34 40.49207 -98.22846 33123 ft 498 kts 63°
2026-04-20 16:35 40.51737 -98.14374 33121 ft 498 kts 63°
2026-04-20 16:35 40.54263 -98.05885 33116 ft 498 kts 63°
2026-04-20 16:36 40.56776 -97.97405 33124 ft 498 kts 63°
2026-04-20 16:36 40.59283 -97.88919 33133 ft 498 kts 63°
2026-04-20 16:37 40.61792 -97.80404 33126 ft 499 kts 63°
2026-04-20 16:37 40.64293 -97.71890 33128 ft 499 kts 63°
2026-04-20 16:38 40.66790 -97.63361 33130 ft 499 kts 63°
2026-04-20 16:38 40.69282 -97.54818 33129 ft 500 kts 64°
2026-04-20 16:39 40.71776 -97.46243 33134 ft 501 kts 63°
2026-04-20 16:39 40.74260 -97.37669 33143 ft 501 kts 64°
2026-04-20 16:40 40.76730 -97.29123 33142 ft 502 kts 64°
2026-04-20 16:40 40.79208 -97.20519 33145 ft 502 kts 64°
2026-04-20 16:41 40.81684 -97.11886 33149 ft 503 kts 64°
2026-04-20 16:41 40.84152 -97.03256 33165 ft 503 kts 64°
2026-04-20 16:42 40.86614 -96.94619 33173 ft 503 kts 64°
2026-04-20 16:42 40.89069 -96.85976 33166 ft 503 kts 64°
2026-04-20 16:43 40.91522 -96.77306 33174 ft 503 kts 64°
2026-04-20 16:43 40.93343 -96.68307 33171 ft 511 kts 74°
2026-04-20 16:44 40.94566 -96.59086 33170 ft 512 kts 75°
2026-04-20 16:44 40.95784 -96.49809 33157 ft 512 kts 75°
2026-04-20 16:45 40.97032 -96.40539 33174 ft 512 kts 75°
2026-04-20 16:45 40.98293 -96.31261 33176 ft 512 kts 75°
2026-04-20 16:46 40.99550 -96.21973 33175 ft 512 kts 75°
2026-04-20 16:46 41.00799 -96.12683 33174 ft 513 kts 75°
2026-04-20 16:47 41.02039 -96.03362 33182 ft 513 kts 75°
2026-04-20 16:47 41.03271 -95.94052 33185 ft 513 kts 75°
2026-04-20 16:48 41.04498 -95.84724 33186 ft 514 kts 75°
2026-04-20 16:48 41.05717 -95.75407 33189 ft 513 kts 75°
2026-04-20 16:49 41.06928 -95.66085 33186 ft 514 kts 75°
2026-04-20 16:49 41.08132 -95.56753 33186 ft 514 kts 75°
2026-04-20 16:50 41.09329 -95.47405 33179 ft 514 kts 75°
2026-04-20 16:50 41.10509 -95.38135 33185 ft 513 kts 75°
2026-04-20 16:51 41.11690 -95.28804 33195 ft 513 kts 75°
2026-04-20 16:51 41.12869 -95.19411 33189 ft 513 kts 75°
2026-04-20 16:52 41.14027 -95.10130 33195 ft 513 kts 75°
2026-04-20 16:52 41.15184 -95.00795 33204 ft 513 kts 75°
2026-04-20 16:53 41.16335 -94.91453 33207 ft 514 kts 75°
2026-04-20 16:53 41.17294 -94.83608 33195 ft 514 kts 75°
2026-04-20 16:54 41.18430 -94.74248 33205 ft 514 kts 75°
2026-04-20 16:54 41.19561 -94.64872 33219 ft 514 kts 75°
2026-04-20 16:55 41.20681 -94.55507 33224 ft 514 kts 75°
2026-04-20 16:55 41.21788 -94.46197 33220 ft 514 kts 75°
2026-04-20 16:56 41.22903 -94.36767 33228 ft 513 kts 75°
2026-04-20 16:56 41.24002 -94.27401 33229 ft 513 kts 75°
2026-04-20 16:57 41.25087 -94.18078 33230 ft 513 kts 75°
2026-04-20 16:57 41.26169 -94.08706 33239 ft 513 kts 75°
2026-04-20 16:58 41.27243 -93.99332 33266 ft 513 kts 75°
2026-04-20 16:58 41.28313 -93.89942 33266 ft 513 kts 75°
2026-04-20 16:59 41.29372 -93.80565 33268 ft 513 kts 75°
2026-04-20 16:59 41.30427 -93.71156 33267 ft 514 kts 75°
2026-04-20 17:00 41.31992 -93.57057 33274 ft 513 kts 75°
2026-04-20 17:01 41.33033 -93.47626 33574 ft 517 kts 75°
2026-04-20 17:01 41.33549 -93.42897 33931 ft 515 kts 75°
2026-04-20 17:01 41.34060 -93.38191 34292 ft 513 kts 75°
2026-04-20 17:01 41.34566 -93.33507 34638 ft 511 kts 75°
2026-04-20 17:02 41.35070 -93.28824 34888 ft 512 kts 75°
2026-04-20 17:02 41.35578 -93.24126 35103 ft 513 kts 75°
2026-04-20 17:02 41.36084 -93.19424 35208 ft 514 kts 75°
2026-04-20 17:03 41.37091 -93.09993 35293 ft 513 kts 75°
2026-04-20 17:03 41.38081 -93.00610 35286 ft 510 kts 75°
2026-04-20 17:04 41.39059 -92.91291 35304 ft 507 kts 75°
2026-04-20 17:04 41.40028 -92.81992 35315 ft 506 kts 75°
2026-04-20 17:05 41.40988 -92.72700 35313 ft 506 kts 75°
2026-04-20 17:05 41.41941 -92.63403 35322 ft 507 kts 75°
2026-04-20 17:06 41.42882 -92.54145 35324 ft 508 kts 75°
2026-04-20 17:06 41.43826 -92.44786 35326 ft 510 kts 75°
2026-04-20 17:07 41.44764 -92.35422 35323 ft 511 kts 75°
2026-04-20 17:07 41.45694 -92.26021 35325 ft 512 kts 75°
2026-04-20 17:08 41.46619 -92.16600 35321 ft 512 kts 75°
2026-04-20 17:08 41.47539 -92.07188 35321 ft 512 kts 75°
2026-04-20 17:09 41.48447 -91.97765 35325 ft 511 kts 76°
2026-04-20 17:09 41.49348 -91.88368 35331 ft 510 kts 76°
2026-04-20 17:10 41.50239 -91.79002 35337 ft 509 kts 75°
2026-04-20 17:10 41.51121 -91.69647 35343 ft 508 kts 76°
2026-04-20 17:11 41.51956 -91.60291 35351 ft 510 kts 79°
2026-04-20 17:11 41.52215 -91.50780 35346 ft 513 kts 82°
2026-04-20 17:12 41.52364 -91.41256 35366 ft 514 kts 82°
2026-04-20 17:12 41.52529 -91.31721 35347 ft 514 kts 82°
2026-04-20 17:13 41.52711 -91.22183 35362 ft 515 kts 81°
2026-04-20 17:13 41.52893 -91.12630 35363 ft 515 kts 81°
2026-04-20 17:14 41.53069 -91.03057 35371 ft 516 kts 81°
2026-04-20 17:14 41.53233 -90.93470 35374 ft 517 kts 81°
2026-04-20 17:15 41.53390 -90.83864 35349 ft 518 kts 81°
2026-04-20 17:15 41.53537 -90.74258 35360 ft 517 kts 81°
2026-04-20 17:16 41.53676 -90.64731 35355 ft 517 kts 81°
2026-04-20 17:16 41.53809 -90.55129 35364 ft 516 kts 81°
2026-04-20 17:17 41.53934 -90.45558 35365 ft 515 kts 81°
2026-04-20 17:17 41.54051 -90.36007 35361 ft 514 kts 81°
2026-04-20 17:18 41.54156 -90.26501 35366 ft 513 kts 81°
2026-04-20 17:18 41.54257 -90.16995 35370 ft 512 kts 81°
2026-04-20 17:19 41.54351 -90.07513 35366 ft 511 kts 81°
2026-04-20 17:19 41.54433 -89.98024 35372 ft 510 kts 81°
2026-04-20 17:20 41.54509 -89.88557 35379 ft 510 kts 81°
2026-04-20 17:20 41.54579 -89.79094 35379 ft 511 kts 81°
2026-04-20 17:21 41.54640 -89.69595 35384 ft 511 kts 82°
2026-04-20 17:21 41.54693 -89.60115 35392 ft 512 kts 82°
2026-04-20 17:22 41.54739 -89.50580 35389 ft 513 kts 82°
2026-04-20 17:22 41.54777 -89.41054 35386 ft 515 kts 82°
2026-04-20 17:23 41.54807 -89.31469 35388 ft 516 kts 82°
2026-04-20 17:23 41.54825 -89.21873 35389 ft 517 kts 82°
2026-04-20 17:24 41.54833 -89.12263 35387 ft 518 kts 82°
2026-04-20 17:24 41.54834 -89.02639 35382 ft 519 kts 82°
2026-04-20 17:25 41.54827 -88.92999 35388 ft 519 kts 82°
2026-04-20 17:25 41.54812 -88.83348 35385 ft 520 kts 82°
2026-04-20 17:26 41.54789 -88.73703 35389 ft 520 kts 83°
2026-04-20 17:26 41.54760 -88.64050 35387 ft 520 kts 83°
2026-04-20 17:27 41.54722 -88.54452 35390 ft 520 kts 83°
2026-04-20 17:27 41.54675 -88.44810 35383 ft 519 kts 83°
2026-04-20 17:28 41.54623 -88.35175 35387 ft 518 kts 82°
2026-04-20 17:28 41.55212 -88.25736 35395 ft 505 kts 72°
2026-04-20 17:29 41.56374 -88.16505 35408 ft 503 kts 72°
2026-04-20 17:29 41.57519 -88.07278 35403 ft 504 kts 72°
2026-04-20 17:30 41.58622 -87.98046 35403 ft 504 kts 72°
2026-04-20 17:30 41.59706 -87.88767 35405 ft 504 kts 72°
2026-04-20 17:31 41.60781 -87.79499 35405 ft 505 kts 73°
2026-04-20 17:31 41.61851 -87.70215 35400 ft 506 kts 73°
2026-04-20 17:32 41.62916 -87.60928 35402 ft 507 kts 73°
2026-04-20 17:32 41.63976 -87.51603 35406 ft 507 kts 73°
2026-04-20 17:33 41.65029 -87.42271 35400 ft 508 kts 73°
2026-04-20 17:33 41.66069 -87.32990 35396 ft 508 kts 73°
2026-04-20 17:34 41.67111 -87.23633 35397 ft 509 kts 73°
2026-04-20 17:34 41.68144 -87.14264 35399 ft 510 kts 73°
2026-04-20 17:35 41.69172 -87.04886 35406 ft 510 kts 73°
2026-04-20 17:35 41.70190 -86.95484 35417 ft 511 kts 73°
2026-04-20 17:36 41.71206 -86.86068 35415 ft 512 kts 74°
2026-04-20 17:36 41.72217 -86.76616 35418 ft 513 kts 74°
2026-04-20 17:37 41.73221 -86.67147 35411 ft 514 kts 74°
2026-04-20 17:37 41.74219 -86.57677 35414 ft 514 kts 74°
2026-04-20 17:38 41.75041 -86.49799 35412 ft 514 kts 74°
2026-04-20 17:38 41.76026 -86.40307 35405 ft 514 kts 74°
2026-04-20 17:39 41.76853 -86.30787 35413 ft 519 kts 80°
2026-04-20 17:39 41.76666 -86.21030 35413 ft 526 kts 86°
2026-04-20 17:40 41.76266 -86.11254 35407 ft 526 kts 86°
2026-04-20 17:40 41.75888 -86.01474 35401 ft 525 kts 85°
2026-04-20 17:41 41.75537 -85.91692 35391 ft 525 kts 85°
2026-04-20 17:41 41.75190 -85.81926 35392 ft 525 kts 85°
2026-04-20 17:42 41.74837 -85.72246 35407 ft 525 kts 86°
2026-04-20 17:42 41.74471 -85.62479 35418 ft 526 kts 86°
2026-04-20 17:43 41.74098 -85.52684 35406 ft 527 kts 86°
2026-04-20 17:43 41.73715 -85.42882 35408 ft 528 kts 86°
2026-04-20 17:44 41.73322 -85.33073 35405 ft 528 kts 86°
2026-04-20 17:44 41.72918 -85.23248 35408 ft 529 kts 86°
2026-04-20 17:45 41.72507 -85.13418 35404 ft 529 kts 86°
2026-04-20 17:45 41.72088 -85.03575 35403 ft 530 kts 87°
2026-04-20 17:46 41.71658 -84.93698 35404 ft 531 kts 87°
2026-04-20 17:46 41.71220 -84.83826 35404 ft 532 kts 87°
2026-04-20 17:47 41.70772 -84.73944 35404 ft 532 kts 87°
2026-04-20 17:47 41.70316 -84.64060 35396 ft 533 kts 87°
2026-04-20 17:48 41.69851 -84.54155 35395 ft 532 kts 87°
2026-04-20 17:48 41.69379 -84.44280 35400 ft 532 kts 88°
2026-04-20 17:49 41.68898 -84.34415 35404 ft 531 kts 88°
2026-04-20 17:49 41.68409 -84.24540 35402 ft 531 kts 88°
2026-04-20 17:50 41.67912 -84.14689 35409 ft 531 kts 88°
2026-04-20 17:50 41.67405 -84.04815 35404 ft 532 kts 88°
2026-04-20 17:51 41.66902 -83.95138 35404 ft 532 kts 88°
2026-04-20 17:51 41.66379 -83.85273 35418 ft 532 kts 88°
2026-04-20 17:52 41.65845 -83.75387 35413 ft 533 kts 88°
2026-04-20 17:52 41.65306 -83.65527 35412 ft 533 kts 88°
2026-04-20 17:53 41.64756 -83.55619 35414 ft 534 kts 89°
2026-04-20 17:53 41.64197 -83.45736 35413 ft 534 kts 89°
2026-04-20 17:54 41.63633 -83.35886 35424 ft 534 kts 89°
2026-04-20 17:54 41.63057 -83.25984 35418 ft 535 kts 89°
2026-04-20 17:55 41.62473 -83.16068 35414 ft 536 kts 89°
2026-04-20 17:55 41.61873 -83.06075 35411 ft 536 kts 89°
2026-04-20 17:56 41.61267 -82.96130 35415 ft 537 kts 90°
2026-04-20 17:56 41.60659 -82.86261 35414 ft 537 kts 90°
2026-04-20 17:57 41.60035 -82.76302 35410 ft 538 kts 90°
2026-04-20 17:57 41.59403 -82.66327 35417 ft 538 kts 90°
2026-04-20 17:58 41.58762 -82.56356 35410 ft 539 kts 90°
2026-04-20 17:58 41.58111 -82.46364 35416 ft 539 kts 90°
2026-04-20 17:59 41.57453 -82.36388 35411 ft 539 kts 91°
2026-04-20 17:59 41.56785 -82.26432 35423 ft 539 kts 91°
2026-04-20 18:00 41.56108 -82.16457 35423 ft 539 kts 91°
2026-04-20 18:00 41.55426 -82.06498 35414 ft 539 kts 91°
2026-04-20 18:01 41.54734 -81.96549 35413 ft 538 kts 91°
2026-04-20 18:01 41.54033 -81.86612 35412 ft 538 kts 91°
2026-04-20 18:02 41.53324 -81.76679 35419 ft 538 kts 91°
2026-04-20 18:02 41.52607 -81.66751 35425 ft 538 kts 91°
2026-04-20 18:03 41.51882 -81.56803 35436 ft 538 kts 91°
2026-04-20 18:03 41.51148 -81.46859 35430 ft 539 kts 92°
2026-04-20 18:04 41.50402 -81.36889 35434 ft 540 kts 92°
2026-04-20 18:04 41.49651 -81.26995 35424 ft 540 kts 92°
2026-04-20 18:05 41.48502 -81.12034 35412 ft 541 kts 92°
2026-04-20 18:05 41.47723 -81.02048 35403 ft 541 kts 93°
2026-04-20 18:06 41.46936 -80.92067 35394 ft 541 kts 93°
2026-04-20 18:06 41.46140 -80.82087 35393 ft 541 kts 93°
2026-04-20 18:07 41.45338 -80.72116 35384 ft 540 kts 93°
2026-04-20 18:07 41.44528 -80.62165 35385 ft 540 kts 93°
2026-04-20 18:08 41.43707 -80.52202 35374 ft 540 kts 94°
2026-04-20 18:08 41.42878 -80.42251 35364 ft 540 kts 94°
2026-04-20 18:09 41.42043 -80.32308 35346 ft 540 kts 94°
2026-04-20 18:09 41.41198 -80.22357 35291 ft 540 kts 94°
2026-04-20 18:10 41.40346 -80.12409 35229 ft 540 kts 94°
2026-04-20 18:10 41.39482 -80.02469 35150 ft 540 kts 94°
2026-04-20 18:11 41.38611 -79.92530 35056 ft 539 kts 94°
2026-04-20 18:11 41.37736 -79.82624 34996 ft 538 kts 95°
2026-04-20 18:12 41.36852 -79.72749 35009 ft 536 kts 95°
2026-04-20 18:12 41.35962 -79.62898 35018 ft 535 kts 95°
2026-04-20 18:13 41.35067 -79.53082 35076 ft 534 kts 95°
2026-04-20 18:13 41.34163 -79.43252 35119 ft 536 kts 95°
2026-04-20 18:14 41.33247 -79.33395 35176 ft 537 kts 95°
2026-04-20 18:14 41.32320 -79.23497 35218 ft 540 kts 96°
2026-04-20 18:15 41.31380 -79.13565 35258 ft 542 kts 96°
2026-04-20 18:15 41.30429 -79.03609 35280 ft 544 kts 96°
2026-04-20 18:16 41.29465 -78.93634 35278 ft 540 kts 95°
2026-04-20 18:16 41.28516 -78.83885 35294 ft 533 kts 95°
2026-04-20 18:17 41.27557 -78.74117 35307 ft 533 kts 95°
2026-04-20 18:17 41.26590 -78.64341 35305 ft 534 kts 96°
2026-04-20 18:18 41.25613 -78.54561 35311 ft 534 kts 96°
2026-04-20 18:18 41.24625 -78.44768 35321 ft 535 kts 96°
2026-04-20 18:19 41.23628 -78.34958 35312 ft 536 kts 96°
2026-04-20 18:19 41.22618 -78.25131 35318 ft 537 kts 96°
2026-04-20 18:20 41.21605 -78.15298 35313 ft 538 kts 96°
2026-04-20 18:20 41.20478 -78.05481 35311 ft 538 kts 98°
2026-04-20 18:21 41.19224 -77.95683 35314 ft 539 kts 99°
2026-04-20 18:21 41.17967 -77.85867 35299 ft 539 kts 99°
2026-04-20 18:22 41.16935 -77.77716 35274 ft 538 kts 99°
2026-04-20 18:22 41.16316 -77.72826 35114 ft 536 kts 99°
2026-04-20 18:22 41.15696 -77.67943 34850 ft 536 kts 99°
2026-04-20 18:23 41.15077 -77.63068 34526 ft 537 kts 99°
2026-04-20 18:23 41.14455 -77.58171 34224 ft 538 kts 99°
2026-04-20 18:23 41.13826 -77.53262 33915 ft 539 kts 99°
2026-04-20 18:23 41.13197 -77.48366 33644 ft 538 kts 99°
2026-04-20 18:24 41.12566 -77.43476 33388 ft 537 kts 99°
2026-04-20 18:24 41.11934 -77.38609 33319 ft 535 kts 99°
2026-04-20 18:24 41.10666 -77.28878 33307 ft 537 kts 99°
2026-04-20 18:25 41.09380 -77.19088 33285 ft 540 kts 99°
2026-04-20 18:25 41.08084 -77.09263 33286 ft 541 kts 99°
2026-04-20 18:26 41.06777 -76.99438 33293 ft 541 kts 100°
2026-04-20 18:26 41.05464 -76.89631 33284 ft 541 kts 100°
2026-04-20 18:27 41.04152 -76.79892 33287 ft 540 kts 100°
2026-04-20 18:27 41.02827 -76.70108 33281 ft 540 kts 100°
2026-04-20 18:28 41.01012 -76.60483 33263 ft 539 kts 109°
2026-04-20 18:28 40.98672 -76.51069 33250 ft 532 kts 109°
2026-04-20 18:29 40.97532 -76.46468 33233 ft 520 kts 109°
2026-04-20 18:29 40.96431 -76.41953 32917 ft 513 kts 109°
2026-04-20 18:29 40.95350 -76.37484 32430 ft 509 kts 109°
2026-04-20 18:29 40.94280 -76.33043 31970 ft 505 kts 109°
2026-04-20 18:30 40.93213 -76.28628 31505 ft 500 kts 109°
2026-04-20 18:30 40.92157 -76.24271 31037 ft 496 kts 109°
2026-04-20 18:30 40.91104 -76.19949 30575 ft 492 kts 109°
2026-04-20 18:30 40.90059 -76.15670 30123 ft 488 kts 109°
2026-04-20 18:31 40.89019 -76.11415 29648 ft 484 kts 109°
2026-04-20 18:31 40.87986 -76.07198 29044 ft 483 kts 109°
2026-04-20 18:31 40.86952 -76.02982 28510 ft 480 kts 109°
2026-04-20 18:31 40.85925 -75.98805 28050 ft 476 kts 109°
2026-04-20 18:32 40.84907 -75.94663 27589 ft 472 kts 110°
2026-04-20 18:32 40.83901 -75.90575 27126 ft 468 kts 110°
2026-04-20 18:32 40.82896 -75.86502 26670 ft 464 kts 110°
2026-04-20 18:32 40.81901 -75.82480 26236 ft 460 kts 110°
2026-04-20 18:33 40.80910 -75.78479 25793 ft 456 kts 110°
2026-04-20 18:33 40.79924 -75.74503 25348 ft 452 kts 110°
2026-04-20 18:33 40.78950 -75.70588 24913 ft 448 kts 110°
2026-04-20 18:33 40.77982 -75.66703 24487 ft 444 kts 110°
2026-04-20 18:34 40.77022 -75.62849 24055 ft 440 kts 110°
2026-04-20 18:34 40.76066 -75.59026 23628 ft 437 kts 110°
2026-04-20 18:34 40.75117 -75.55236 23207 ft 433 kts 110°
2026-04-20 18:34 40.74175 -75.51475 22781 ft 430 kts 110°
2026-04-20 18:35 40.73238 -75.47743 22358 ft 427 kts 110°
2026-04-20 18:35 40.72351 -75.44022 21937 ft 425 kts 107°
2026-04-20 18:35 40.71597 -75.40274 21521 ft 422 kts 106°
2026-04-20 18:35 40.70872 -75.36549 21108 ft 419 kts 106°
2026-04-20 18:36 40.70150 -75.32844 20692 ft 415 kts 106°
2026-04-20 18:36 40.69428 -75.29179 20278 ft 412 kts 106°
2026-04-20 18:36 40.68702 -75.25528 19864 ft 409 kts 106°
2026-04-20 18:36 40.67981 -75.21925 19455 ft 406 kts 106°
2026-04-20 18:37 40.67219 -75.18352 19036 ft 402 kts 111°
2026-04-20 18:37 40.66078 -75.15024 18635 ft 395 kts 123°
2026-04-20 18:37 40.64579 -75.12023 18230 ft 389 kts 131°
2026-04-20 18:37 40.62795 -75.09395 17823 ft 383 kts 138°
2026-04-20 18:38 40.60987 -75.06903 17433 ft 380 kts 137°
2026-04-20 18:38 40.59175 -75.04349 17022 ft 377 kts 136°
2026-04-20 18:38 40.57558 -75.01668 16618 ft 378 kts 127°
2026-04-20 18:38 40.56230 -74.98700 16223 ft 377 kts 120°
2026-04-20 18:39 40.55182 -74.95539 15839 ft 375 kts 113°
2026-04-20 18:39 40.54252 -74.92350 15440 ft 372 kts 113°
2026-04-20 18:39 40.53325 -74.89179 15057 ft 369 kts 113°
2026-04-20 18:39 40.52404 -74.86050 14662 ft 366 kts 114°
2026-04-20 18:40 40.51481 -74.82944 14292 ft 363 kts 114°
2026-04-20 18:40 40.50568 -74.79887 13900 ft 359 kts 114°
2026-04-20 18:40 40.49656 -74.76846 13525 ft 356 kts 114°
2026-04-20 18:40 40.48739 -74.73798 13144 ft 354 kts 114°
2026-04-20 18:41 40.47844 -74.70837 12755 ft 351 kts 114°
2026-04-20 18:41 40.46954 -74.67878 12391 ft 346 kts 114°
2026-04-20 18:41 40.46075 -74.64946 12026 ft 344 kts 114°
2026-04-20 18:41 40.45201 -74.62042 11666 ft 339 kts 114°
2026-04-20 18:42 40.44336 -74.59179 11313 ft 336 kts 114°
2026-04-20 18:42 40.43496 -74.56341 10949 ft 331 kts 109°
2026-04-20 18:42 40.43133 -74.53394 10763 ft 323 kts 90°
2026-04-20 18:42 40.43420 -74.50526 10619 ft 312 kts 75°
2026-04-20 18:43 40.43976 -74.47819 10488 ft 302 kts 73°
2026-04-20 18:43 40.44532 -74.45210 10350 ft 291 kts 73°
2026-04-20 18:43 40.45067 -74.42691 10228 ft 281 kts 73°
2026-04-20 18:43 40.45584 -74.40230 9997 ft 284 kts 73°
2026-04-20 18:44 40.46112 -74.37693 9717 ft 290 kts 73°
2026-04-20 18:44 40.46639 -74.35135 9410 ft 291 kts 73°
2026-04-20 18:44 40.47162 -74.32577 9087 ft 288 kts 73°
2026-04-20 18:44 40.47674 -74.30059 8775 ft 284 kts 73°
2026-04-20 18:45 40.48178 -74.27574 8457 ft 279 kts 73°
2026-04-20 18:45 40.48673 -74.25130 8159 ft 276 kts 73°
2026-04-20 18:45 40.49164 -74.22707 7864 ft 272 kts 73°
2026-04-20 18:45 40.49643 -74.20328 7567 ft 267 kts 73°
2026-04-20 18:46 40.50120 -74.17964 7122 ft 269 kts 73°
2026-04-20 18:46 40.50596 -74.15596 6790 ft 269 kts 73°
2026-04-20 18:46 40.51076 -74.13211 6493 ft 270 kts 73°
2026-04-20 18:46 40.51558 -74.10826 6193 ft 270 kts 71°
2026-04-20 18:47 40.52422 -74.08706 5870 ft 260 kts 41°
2026-04-20 18:47 40.53849 -74.07362 5599 ft 247 kts 27°
2026-04-20 18:47 40.55293 -74.06199 5358 ft 238 kts 28°
2026-04-20 18:47 40.56681 -74.05058 5075 ft 233 kts 28°
2026-04-20 18:48 40.58025 -74.03956 4835 ft 222 kts 28°
2026-04-20 18:48 40.59253 -74.02949 4566 ft 212 kts 28°
2026-04-20 18:48 40.60468 -74.01952 4308 ft 199 kts 28°
2026-04-20 18:48 40.61611 -74.01015 4107 ft 186 kts 27°
2026-04-20 18:49 40.62710 -74.00114 4055 ft 189 kts 27°
2026-04-20 18:49 40.63829 -73.99197 3965 ft 189 kts 28°
2026-04-20 18:49 40.64959 -73.98271 3792 ft 193 kts 28°
2026-04-20 18:49 40.66087 -73.97340 3557 ft 189 kts 28°
2026-04-20 18:50 40.67175 -73.96404 3324 ft 184 kts 29°
2026-04-20 18:50 40.68246 -73.95481 3129 ft 185 kts 29°
2026-04-20 18:50 40.69325 -73.94545 2901 ft 185 kts 30°
2026-04-20 18:50 40.70297 -73.93442 2689 ft 187 kts 42°
2026-04-20 18:51 40.71180 -73.92185 2408 ft 185 kts 43°
2026-04-20 18:51 40.71912 -73.90823 2101 ft 184 kts 66°
2026-04-20 18:51 40.72183 -73.89205 1878 ft 177 kts 74°
2026-04-20 18:51 40.72446 -73.87676 1642 ft 168 kts 73°
2026-04-20 18:52 40.72710 -73.86192 1385 ft 165 kts 72°
2026-04-20 18:52 40.73008 -73.84735 1138 ft 163 kts 60°
2026-04-20 18:52 40.73784 -73.83824 1012 ft 146 kts 20°
2026-04-20 18:52 40.74752 -73.83263 735 ft 155 kts
2026-04-20 18:53 40.75773 -73.83492 484 ft 151 kts 326°
2026-04-20 18:53 40.76480 -73.84438 357 ft 141 kts 313°
2026-04-20 18:53 40.77090 -73.85452 85 ft 143 kts 304°
2026-04-20 18:53 40.77597 -73.86553 21 ft 132 kts 304°
2026-04-20 18:54 40.77898 -73.87163 19 ft 25 kts 300°
2026-04-20 18:54 40.77890 -73.87338 18 ft 14 kts 249°
2026-04-20 18:54 40.77810 -73.87397 18 ft 14 kts 191°
2026-04-20 18:54 40.77769 -73.87301 20 ft 14 kts 93°
2026-04-20 18:55 40.77732 -73.87183 23 ft 14 kts 121°
2026-04-20 18:55 40.77682 -73.87073 19 ft 14 kts 122°
2026-04-20 18:55 40.77629 -73.86965 18 ft 14 kts 122°
2026-04-20 18:55 40.77576 -73.86856 18 ft 14 kts 123°
2026-04-20 18:56 40.77519 -73.86752 17 ft 14 kts 128°
2026-04-20 18:56 40.77445 -73.86692 21 ft 14 kts 205°
2026-04-20 18:56 40.77427 -73.86725 24 ft 3 kts 246°
2026-04-20 18:56 40.77420 -73.86747 24 ft 3 kts 246°
2026-04-20 18:57 40.77407 -73.86780 24 ft 5 kts 243°
2026-04-20 18:57 40.77392 -73.86819 25 ft 0 kts 242°